Home   Weather   Fairfield   Past weeks
Flag for USA

Past Weather in Fairfield, Arkansas, USA — Yesterday and Last 2 Weeks

Now
43 °F

Drizzle. Fog.


Feels Like: 38 °F
Forecast: 45 / 37 °F
Wind: 8 mph from Northwest

Location: Adams Field

Current Time: Dec 15, 2019 at 11:24:18 pm

Latest Report: Dec 15, 2019 at 9:53 pm


Visibility: 1 mi

Pressure: 29.92 "Hg

Humidity: 97%

Dew Point: 42 °F

Location of FairfieldLocation

Past Weather in Fairfield — Graph

°F

Fairfield Temperature Yesterday

Maximum temperature yesterday: 54 °F (at 10:53 am)
Minimum temperature yesterday: 37 °F (at 4:53 am)
Average temperature yesterday: 45 °F

High & Low Weather Summary for the Past Weeks

 TemperatureHumidityPressure
High69 °F (Dec 9, 1:08 pm)100% (Dec 8, 12:58 am)30.61 "Hg (Dec 8, 12:58 am)
Low25 °F (Dec 11, 3:53 am)27% (Dec 4, 1:53 pm)29.70 "Hg (Dec 9, 1:08 pm)
Average45 °F72%30.08 "Hg
* Reported Nov 30 9:53 pm — Dec 15 9:53 pm, Fairfield. Weather by CustomWeather, © 2019

Note: Actual official high and low records may vary slightly from our data, if they occured in-between our weather recording intervals... More about our weather records

Fairfield Weather History for the Previous 24 Hours

Scroll right to see more
 ConditionsComfort  
Time TempWeatherWind HumidityBarometerVisibility
9:53 pm
Sun, Dec 15
43 °FDrizzle. Fog.8 mph97%29.92 "Hg1 mi
8:53 pm42 °FLight rain. Fog.5 mph100%29.91 "Hg1 mi
7:53 pm42 °FDrizzle. Fog.7 mph96%29.90 "Hg1 mi
6:53 pm42 °FDrizzle. Fog.8 mph96%29.89 "Hg1 mi
5:53 pm43 °FDrizzle. Fog.9 mph97%29.88 "Hg1 mi
4:53 pm44 °FDrizzle. Fog.7 mph96%29.88 "Hg1 mi
3:53 pm44 °FDrizzle. Fog.6 mph100%29.85 "Hg1 mi
3:21 pm45 °FDrizzle. Fog.8 mph97%29.84 "Hg1 mi
2:53 pm46 °FDrizzle. Fog.8 mph93%29.84 "Hg1 mi
1:53 pm46 °FDrizzle. Fog.7 mph89%29.85 "Hg2 mi
1:25 pm46 °FDrizzle. Fog.13 mph86%29.86 "Hg3 mi
12:53 pm46 °FDrizzle. Fog.14 mph86%29.88 "Hg3 mi
11:53 am45 °FFog.12 mph82%29.92 "Hg6 mi
11:03 am45 °FOvercast.13 mph82%29.94 "Hg7 mi
10:53 am45 °FOvercast.13 mph82%29.95 "Hg7 mi
9:53 am44 °FFog.13 mph82%29.96 "Hg6 mi
8:53 am42 °FFog.12 mph85%29.98 "Hg5 mi
8:11 am41 °FFog.9 mph89%29.98 "Hg4 mi
7:53 am40 °FFog.9 mph89%29.99 "Hg4 mi
6:53 am39 °FMostly cloudy.10 mph89%30.00 "Hg10 mi
5:53 am39 °FMostly cloudy.10 mph86%29.99 "Hg10 mi
4:53 am40 °FMostly cloudy.10 mph83%29.99 "Hg10 mi
3:53 am40 °FMostly cloudy.12 mph86%30.00 "Hg10 mi
2:53 am42 °FMostly cloudy.8 mph82%30.00 "Hg10 mi
1:53 am42 °FMostly cloudy.9 mph82%30.00 "Hg10 mi
12:53 am43 °FMostly cloudy.8 mph82%29.99 "Hg10 mi
11:53 pm
Sat, Dec 14
43 °FMostly cloudy.8 mph82%29.99 "Hg10 mi
Weather by CustomWeather, © 2019

See weather overview

Advertising